Regional Weather Roundup
Issued by NWS Kansas City/Pleasant Hill, MO

Home | Current Version | Previous Version | Graphics & Text | Print | Product List | Glossary Off
Versions: 1 2 3 4 5 6 7 8 9 10 11 12 13 14 15 16 17 18 19 20 21 22 23 24 25 26 27 28 29 30 31 32 33 34 35 36 37 38 39 40 41 42 43 44 45 46 47 48 49 50

078
ASUS43 KEAX 281110
RWREAX

WEATHER ROUNDUP FOR EASTERN KANSAS AND NORTHWEST MISSOURI
NATIONAL WEATHER SERVICE KANSAS CITY/PLEASANT HILL MO
500 AM CST TUE FEB 28 2017

KSZ040-057-103>105-MOZ028-029-037-043-281200-
...KANSAS CITY METROPOLITAN AREA...

CITY           SKY/WX    TMP DP  RH WIND       PRES   REMARKS
K.C. INTL      CLOUDY    63  57  81 S13G25    29.69R
K.C. DOWNTOWN  CLOUDY    64  58  80 SW16G24   29.69S
LEES SUMMIT    CLOUDY    62  58  86 S14G23    29.72R
OLATHE - IXD   CLOUDY    62  57  83 S16       29.71R
OLATHE - OJC   CLOUDY    61  58  90 SW13      29.70S
LAWRENCE         N/A     64  59  83 MISG      29.67F

$$

MOZ001>008-011>017-020>025-030>033-038>040-044>046-053-054-281200-
...NORTHERN AND CENTRAL MISSOURI...

CITY           SKY/WX    TMP DP  RH WIND       PRES   REMARKS
ST. JOSEPH     CLOUDY    63  58  83 S20G28    29.64S
MOSBY          CLOUDY    63  55  77 SW13G22   29.70S
WARRENSBURG    CLOUDY    61  55  82 S16G24    29.73S
WHITEMAN AFB   MOCLDY    60  60 100 SW15      29.74R
CLINTON        CLOUDY    59  55  88 S8        29.77R
SEDALIA        CLOUDY    63  56  78 S20G26    29.77R
WARSAW         NOT AVBL
CHILLICOTHE      N/A     62  56  80 S12       29.70R
KIRKSVILLE     CLOUDY    59  53  80 S16G24    29.71F

$$

MOZ041-047>049-056>058-063>065-088>090-097-281200-
...EASTERN AND SOUTHERN MISSOURI...

CITY           SKY/WX    TMP DP  RH WIND       PRES   REMARKS
ST. LOUIS INTL CLOUDY    56  52  86 SE9       29.87R
SPIRIT OF STL  CLOUDY    57  53  86 S7        29.84F
COLUMBIA       CLOUDY    60  55  83 S20G26    29.77F
JEFFERSON CITY CLOUDY    61  54  77 S9        29.79F
ROLLA          CLOUDY    58  54  86 S14       29.82F
OSAGE BEACH    CLOUDY    59  55  87 S8        29.81F
SPRINGFIELD    CLOUDY    60  56  86 S15       29.82S
BRANSON        CLOUDY    61  59  94 S7        29.87S
JOPLIN         CLOUDY    63  60  90 S20G26    29.78F
WEST PLAINS    CLOUDY    55  54  96 S8        29.90F FOG

$$

IAZ060-094-KSZ022-034>040-054-083-096-NEZ052-066-093-281200-
...KANSAS...SOUTHEAST NEBRASKA AND IOWA...

CITY           SKY/WX    TMP DP  RH WIND       PRES   REMARKS
TOPEKA         PTCLDY    63  59  87 S13G25    29.65F
MANHATTAN      CLOUDY    56  53  90 SW14      29.64S
EMPORIA        CLOUDY    61  58  90 S16       29.68F
CHANUTE        CLOUDY    62  58  86 S20G30    29.72F
WICHITA        CLOUDY    56  56 100 S8        29.68S FOG
OMAHA          CLOUDY    45  37  73 S5        29.57R
LINCOLN        CLOUDY    45  38  76 SW9       29.58R
FALLS CITY     CLOUDY    58  54  86 S15       29.61R
LAMONI         CLOUDY    56  52  86 S12       29.63R
DES MOINES     CLOUDY    53  44  71 SE9       29.63F

$$





USA.gov is the U.S. government's official web portal to all federal, state and local government web resources and services.